Regional Weather Roundup
Issued by NWS Charleston, WV

Home | Current Version | Previous Version | Text Only | Print | Product List | Glossary Off
Versions: 1 2 3 4 5 6 7 8 9 10 11 12 13 14 15 16 17 18 19 20 21 22 23 24 25 26 27 28 29 30 31 32 33 34 35 36 37 38 39 40 41 42 43 44 45 46 47 48 49 50

000
ASUS41 KRLX 090610
RWRRLX
West Virginia Regional Weather Roundup
National Weather Service Charleston WV
Issued by National Weather Service Pittsburgh PA
100 AM EST FRI DEC 09 2016

Note: "fair" indicates few or no clouds below 12,000 feet with no
significant weather and/or obstructions to visibility.

WVZ003-090700-
Northern Panhandle of West Virginia

CITY           SKY/WX    TMP DP  RH WIND       PRES   REMARKS
WHEELING       LGT SNOW  22  16  78 W14       30.28R WCI   9
$$

WVZ009-090700-
Northwest West Virginia

CITY           SKY/WX    TMP DP  RH WIND       PRES   REMARKS
PARKERSBURG    CLOUDY    25  15  66 W7G21     30.39R WCI  17
$$

WVZ006-090700-
Western West Virginia

CITY           SKY/WX    TMP DP  RH WIND       PRES   REMARKS
HUNTINGTON     CLOUDY    25  13  60 NW7       30.41R WCI  17
$$

WVZ015-090700-
West Central West Virginia

CITY           SKY/WX    TMP DP  RH WIND       PRES   REMARKS
CHARLESTON     CLOUDY    25  12  58 VRB7      30.39R WCI  17
$$

WVZ031-090700-
North Central West Virginia

CITY           SKY/WX    TMP DP  RH WIND       PRES   REMARKS
CLARKSBURG     CLOUDY    24  13  62 W10       30.30S WCI  14
MORGANTOWN     FLURRIES  24  13  62 SW5       30.29R WCI  18
$$

WVZ035-042-090700-
South Central West Virginia

CITY           SKY/WX    TMP DP  RH WIND       PRES   REMARKS
BECKLEY        FLURRIES  21  15  78 NW15      30.24R WCI   8
BLUEFIELD      CLOUDY    21  10  62 NW13G25   30.22S WCI   9
$$

WVZ045-090700-
Greenbrier Valley of West Virginia

CITY           SKY/WX    TMP DP  RH WIND       PRES   REMARKS
LEWISBURG      CLOUDY    23  13  65 NW7G16    30.22S WCI  15
$$

WVZ047-090700-
Northern Mountains of West Virginia

CITY           SKY/WX    TMP DP  RH WIND       PRES   REMARKS
ELKINS         FLURRIES  21  11  65 W8        30.26R WCI  11
$$

WVZ052-090700-
Eastern Panhandle of West Virginia

CITY           SKY/WX    TMP DP  RH WIND       PRES   REMARKS
MARTINSBURG    CLEAR     28  13  53 W15G24    30.21S WCI  16
PETERSBURG     CLOUDY    29  13  52 W12G20    30.26R WCI  19
$$




USA.gov is the U.S. government's official web portal to all federal, state and local government web resources and services.